[ hide orbit diagram ]
For accurate long-term ephemerides, please instead use our Horizons system.This orbit viewer was implemented using two-body methods, and hence should not be used for determining accurate long-term trajectories (over several years or decades) or planetary encounter circumstances.
Orbital Elements at Epoch 2459200.5 (2020-Dec-17.0) TDB
Reference: JPL 38 (heliocentric ecliptic J2000)
Element | Value | Uncertainty (1-sigma) | Units |
e | .2743934309735459 | 2.078e-08 | |
a | 2.550519967155429 | 9.7034e-09 | au |
q | 1.850674042601115 | 5.2266e-08 | au |
i | 15.17639124581492 | 4.8329e-07 | deg |
node | 291.9816899794117 | 1.576e-06 | deg |
peri | 217.4438322826633 | 2.0755e-06 | deg |
M | 179.3707842696425 | 4.2184e-06 | deg |
tp | 2458459.205590534189 (2018-Dec-06.70559053) | 1.4177e-05 | TDB |
period | 1487.78960015317 4.07 | 8.4904e-06 2.325e-08 | d yr |
n | .24196969784097 | 1.3808e-09 | deg/d |
Q | 3.250365891709742 | 1.2366e-08 | au |
|
| | Orbit Determination Parameters
Additional Information
|
[ show covariance matrix ]
Physical Parameter Table
Parameter |
Symbol |
Value |
Units |
Sigma |
Reference |
Notes |
absolute magnitude |
H |
12.45 |
|
n/a |
E2021B10 |
IRAS observations used: 3 |
diameter |
diameter |
20.062 |
km |
0.112 |
urn:nasa:pds:neowise_diameters_albedos::2.0[mainbelt] (http://adsabs.harvard.edu/abs/2014ApJ...791..121M) |
|
rotation period |
rot_per |
3.92 |
h |
n/a |
LCDB (Rev. 2020-October); Warner et al., 2009 |
Published Reference List: [Binzel, R.P.; Mulholland, J.D. (1983) Icarus 56, 519-533.] [Waszczak, A.; Chang, C.-K.; Ofeck, E.O.; Laher, F.; et al. (2015) Astron. J. 150, A75.] [Pal, A.; Szakats, R.; Kiss, C.; Bodi, A.; et al. (2019) Ap. J. Supl. Ser. 247, id.26.] |
geometric albedo |
albedo |
0.055 |
|
0.011 |
urn:nasa:pds:neowise_diameters_albedos::2.0[mainbelt] (http://adsabs.harvard.edu/abs/2014ApJ...791..121M) |
|
|
1250 Galanthus (1933 BD) Discovered 1933-Jan-25 by Reinmuth, K. at Heidelberg |
Reference: DISCOVERY.DB | Last Updated: 2003-08-29 |
|
[ show close-approach data ]
|